User: anonymous
Location: Pella
(41.4080°N, 92.9160°W)
Time: 00:54:17
(UTC-05:00)
Language:

Iridium 91 - Orbit

View from above orbital plane
View from above orbital plane
View from above satellite
View from above satellite

Ground track
Ground track

The orbit data is extracted from the following two-line orbital elements,

1 27372U 02005A   14233.47516110  .00000187  00000-0  59771-4 0  4507
2 27372 086.4022 358.5116 0002498 077.2328 326.0419 14.34218533663897
Epoch (UTC): 21 August 2014 11:24:13
Eccentricity: 0.0002498
inclination: 86.4022°
perigee height: 776 km
apogee height: 779 km
right ascension of ascending node: 358.5116°
argument of perigee: 77.2328°
revolutions per day: 14.34218533
mean anomaly at epoch: 326.0419°
orbit number at epoch: 66389

The dashed part of the orbit path shows where the satellite is in the earth's shadow,  

DLR